CAPE
16 9 0 0 0 0 0 0 0 0 0 0 0 0 0 0 0 0 0 0 0 0 0 0 0 10 1812 1464 403 534 144 712 1461 1560 1755 1805 1587 1696 1806 1974 2091 2002 1932 1941
4 0 0 0 0 0 0 0 0 0 0 0 0 0 0 0 0 0 0 0 0 0 0 0 0 329 2138 1544 690 0 88 1191 1465 1563 1768 1892 1809 1676 1415 1910 1990 1718 1981 1798
0 0 0 0 0 0 0 0 0 0 0 0 0 0 0 0 0 0 0 0 0 0 0 0 0 1508 2542 1738 821 53 128 56 599 1459 2300 1860 1647 1424 1446 1501 1645 1706 1794 1657
0 0 13 13 0 0 0 0 0 0 0 0 0 0 0 0 0 0 0 0 0 0 0 0 0 1916 2181 1835 1723 1256 811 606 1233 1721 1832 771 1881 1461 1519 1465 1564 1369 1306 1292
0 0 11 8 1 0 0 0 0 0 0 2 0 0 0 0 0 0 0 0 0 0 0 0 498 1520 1947 1440 1154 0 587 1099 2170 1726 1706 1808 1426 1515 1486 1391 939 777 627 600
0 1 0 0 2 0 0 0 0 0 0 0 0 0 0 0 0 0 0 0 0 0 0 0 911 2307 1932 1671 895 82 141 1548 1680 1637 1483 1658 1467 1386 1470 1069 740 585 213 34
0 0 0 0 2 0 0 0 0 0 0 0 0 0 0 0 0 0 0 0 0 0 0 246 614 2115 2004 1698 1102 741 1515 1380 1624 1556 1417 1428 1214 1242 1106 778 661 215 8 0
0 0 0 0 0 13 0 0 0 4 0 0 0 0 0 0 0 0 0 0 0 0 0 298 1785 2267 1786 1379 931 907 1269 1739 1485 1243 931 654 639 466 252 616 74 1 0 0
0 0 0 0 0 0 0 0 0 0 0 0 0 0 2 0 0 0 0 0 0 0 0 493 1766 1805 1475 1207 1071 1210 1191 863 474 85 119 6 0 0 0 0 0 0 0 0
1 20 24 0 73 7 0 0 0 0 26 25 4 0 0 0 0 0 0 0 0 249 613 1238 1340 1151 988 770 535 346 177 5 0 0 0 0 0 0 0 0 0 0 0 0
6 6 15 0 0 3 0 0 4 0 0 14 9 0 135 29 0 0 0 241 729 924 792 732 714 586 558 290 136 2 0 0 0 0 0 0 0 0 0 0 0 0 0 0
0 21 21 0 5 0 0 0 0 0 0 23 70 101 308 212 182 110 347 768 885 714 475 454 356 258 159 1 0 0 0 0 0 0 0 0 0 0 0 0 0 0 0 0
1 1 0 17 52 16 13 1 3 0 20 9 17 82 401 362 390 500 670 785 699 506 307 150 28 0 0 0 0 0 0 0 0 0 0 0 0 0 0 0 0 0 0 0
7 1 0 9 26 41 1 6 0 0 0 5 37 169 124 103 244 317 341 415 343 196 15 0 0 0 0 0 0 0 0 0 0 0 0 0 0 0 0 0 0 0 0 0
3 0 0 38 142 63 17 3 3 0 0 4 22 0 17 23 61 182 111 51 1 0 0 0 0 0 0 0 0 0 0 0 0 0 0 0 0 0 0 0 0 0 0 0
0 0 0 12 126 72 8 0 0 0 0 165 121 7 26 27 65 129 10 0 0 0 0 0 0 0 0 0 0 0 0 0 0 0 0 0 0 0 0 0 0 0 0 0
2 3 4 4 20 78 4 0 1 11 118 74 57 22 9 0 4 0 0 0 0 0 0 0 0 0 0 0 0 0 0 0 0 0 0 0 0 0 0 0 0 1 2 0
1 2 3 0 0 2 45 56 181 186 169 129 41 1 0 0 0 0 0 0 0 0 0 0 0 0 0 0 0 0 0 0 0 0 0 0 0 0 0 0 0 3 6 4
2 0 12 1 0 3 10 0 7 37 232 33 10 0 0 0 0 0 0 0 0 0 0 0 0 0 0 0 0 0 0 0 0 0 0 0 0 0 0 1 1 4 7 7
1 3 1 17 0 0 2 0 1 0 66 0 0 3 0 0 0 1 0 0 0 0 0 0 0 0 0 0 0 0 0 0 0 0 0 0 0 0 0 0 0 0 4 3
1 0 0 5 0 0 0 2 0 0 1 1 0 0 0 0 0 0 0 0 0 0 0 0 0 0 0 0 0 0 0 0 0 0 0 0 0 0 1 1 0 0 1 0
0 0 1 0 1 0 1 0 21 0 1 0 0 0 0 0 0 0 0 0 0 0 0 0 0 0 0 0 0 0 0 0 0 0 0 0 0 0 1 0 0 0 0 0
0 0 2 1 0 0 4 3 1 0 0 0 0 0 0 0 0 0 0 0 0 0 0 0 0 0 0 0 0 0 0 0 0 0 0 0 0 0 0 0 0 0 0 0
0 1 0 0 0 0 5 0 0 0 1 0 0 0 0 0 0 0 0 0 0 0 0 0 0 0 0 0 0 0 0 0 0 0 0 0 0 0 0 0 0 0 0 0
1 1 0 0 0 0 2 1 2 2 0 0 0 0 0 0 0 0 0 0 0 0 0 0 0 0 0 0 0 0 0 0 0 0 0 0 0 0 0 0 0 0 0 0
0 1 2 0 0 1 1 2 0 1 2 0 0 0 0 0 0 0 0 0 0 0 0 0 0 0 0 0 0 0 0 0 0 0 0 0 0 0 0 0 0 0 0 0
CIN
-23 -14 0 0 0 0 0 0 0 0 0 0 0 0 0 0 0 0 0 0 0 0 0 0 0 -239 -143 -180 -252 -203 -331 -163 -47 -41 -25 -26 -25 -31 -36 -21 -24 -23 -26 -17
-6 0 0 0 0 0 0 0 0 0 0 0 0 0 0 0 0 0 0 0 0 0 0 0 0 -97 -131 -189 -187 -1 -93 -114 -79 -66 -61 -38 -46 -37 -44 -26 -27 -29 -23 -20
0 0 -24 -31 0 0 0 0 0 0 0 0 0 0 0 0 0 0 0 0 0 0 0 0 0 -58 -99 -108 -166 -322 -176 -144 -152 -20 -30 -35 -24 -24 -28 -36 -38 -37 -25 -34
0 0 -29 -21 0 0 0 0 0 0 0 0 0 0 0 0 0 0 0 0 0 0 0 0 0 -73 -50 -62 -92 -91 -126 -160 -11 -11 -30 -9 -44 -38 -70 -49 -39 -36 -43 -74
0 0 -6 -33 -3 0 0 0 0 0 0 -23 -1 0 0 0 0 0 0 0 0 0 0 0 -56 -47 -69 -69 -102 -1 -147 -106 -32 -8 -38 -43 -60 -55 -40 -47 -99 -131 -213 -246
0 -4 0 0 -60 0 0 0 0 0 0 0 0 0 0 0 0 0 0 0 0 0 0 0 -68 -59 -82 -111 -113 -218 -232 -67 -23 -32 -25 -22 -47 -54 -35 -84 -135 -212 -378 -459
0 0 0 0 -83 0 0 0 0 0 0 0 0 0 0 0 0 0 0 0 0 0 0 -173 -79 -47 -46 -28 -64 -24 -20 -21 -19 -28 -28 -17 -48 -52 -54 -86 -166 -346 -175 0
0 0 0 0 0 -2 0 0 -6 -73 0 0 0 -3 0 0 0 0 0 0 0 0 0 -136 -46 -57 -79 -69 -98 -9 -19 -19 -24 -57 -81 -119 -113 -156 -240 -140 -420 -54 0 0
0 0 -1 0 0 0 0 0 0 0 -25 0 0 0 -3 0 0 0 0 0 0 0 0 -101 -92 -133 -131 -116 -96 -97 -79 -97 -199 -328 -338 -136 0 0 0 0 0 0 0 0
0 -37 -30 -2 -44 -92 0 0 0 0 -19 -33 -15 0 0 0 0 0 0 0 0 -142 -178 -140 -136 -159 -227 -171 -184 -229 -276 -101 0 0 0 0 0 0 0 0 0 0 0 0
0 -41 -18 0 0 -138 0 -1 -1 0 0 -29 -21 0 -94 -94 0 0 -5 -137 -175 -190 -213 -189 -211 -268 -334 -385 -340 -137 0 0 0 0 0 0 0 0 0 0 0 0 0 0
0 -22 -36 0 -22 0 0 0 0 0 0 -61 -21 -33 -129 -143 -218 -170 -148 -175 -181 -212 -216 -236 -268 -311 -368 -14 0 0 0 0 0 0 0 0 0 0 0 0 0 0 0 0
0 -14 0 -18 -20 -51 -26 -30 -2 0 -67 -55 -61 -45 -116 -213 -212 -194 -167 -169 -161 -177 -204 -248 -295 0 0 0 0 0 0 0 0 0 0 0 0 0 0 0 0 0 0 0
0 0 0 -18 -6 -45 -12 -114 0 0 -41 -49 -57 -18 -78 -155 -171 -143 -152 -195 -186 -182 -114 0 0 0 0 0 0 0 0 0 0 0 0 0 0 0 0 0 0 0 0 0
-2 0 0 -61 -31 -19 -81 -149 -3 0 0 -100 -104 0 -59 -136 -153 -129 -161 -182 -24 0 0 0 0 0 0 0 0 0 0 0 0 0 0 0 0 0 0 0 0 0 0 0
0 -3 0 -30 -16 -25 -87 0 0 0 0 -11 -16 -43 -20 -23 -58 -59 -154 0 0 0 0 0 0 0 0 0 0 0 0 0 0 0 0 0 0 0 0 0 0 0 0 0
0 0 -7 -14 -49 -15 -43 0 -23 -4 -22 -49 -99 -98 -29 -7 -26 0 0 0 0 0 0 0 0 0 0 0 0 0 0 0 0 0 0 0 0 0 0 0 0 -2 -6 -5
0 0 -18 0 0 -7 -31 -135 -42 -11 -63 -43 -82 -45 0 0 0 0 0 0 0 0 0 0 0 0 0 0 0 0 0 0 0 0 0 0 0 0 0 0 0 -6 -8 -14
0 0 -12 0 0 -1 -81 0 -13 -70 -24 -103 -130 0 0 0 0 0 0 0 0 0 0 0 0 0 0 0 0 0 0 0 0 0 0 0 0 0 0 -3 -7 -9 -9 -9
0 -1 0 -10 0 0 0 0 0 0 -17 0 0 0 0 0 0 0 0 0 0 0 0 0 0 0 0 0 0 0 0 0 0 0 0 0 0 0 0 0 -4 -5 -7 -14
0 0 0 -46 0 0 0 0 0 -1 -3 0 0 0 0 0 0 0 0 0 0 0 0 0 0 0 0 0 0 0 0 0 0 0 0 0 0 0 -6 -7 -4 -5 -3 0
0 0 0 0 0 0 0 0 -40 0 0 0 0 0 0 0 0 0 0 0 0 0 0 0 0 0 0 0 0 0 0 0 0 0 0 0 0 0 -5 -2 0 -1 0 -4
0 0 0 0 0 0 0 0 0 0 0 0 0 0 0 0 0 0 0 0 0 0 0 0 0 0 0 0 0 0 0 0 0 0 0 0 0 0 0 0 0 0 0 0
0 0 0 0 0 0 0 0 0 0 0 0 0 0 0 0 0 0 0 0 0 0 0 0 0 0 0 0 0 0 0 0 0 0 0 0 0 0 0 0 0 0 0 0
0 0 0 0 0 0 0 0 0 0 0 0 0 0 0 0 0 0 0 0 0 0 0 0 0 0 0 0 0 0 0 0 0 0 0 0 0 0 0 0 0 0 0 0
0 0 0 0 0 0 0 0 0 0 0 0 0 0 0 0 0 0 0 0 0 0 0 0 0 0 0 0 0 0 0 0 0 0 0 0 0 0 0 0 0 0 0 0
Wind_Speed
30 38 51 49 51 55 51 51 55 49 44 43 45 43 38 35 31 29 27 22 18 18 23 33 34 10 10 11 13 14 13 12 14 15 15 16 15 13 12 9 5 5 8 9
31 37 46 43 48 55 57 54 54 47 41 45 40 43 37 36 39 29 27 24 21 17 18 29 16 9 13 12 14 13 14 15 14 20 12 17 16 14 8 8 5 6 9 9
32 31 35 48 50 52 61 56 50 46 39 44 39 39 37 37 39 32 26 23 22 19 19 22 15 10 11 11 10 11 13 16 41 40 9 13 11 8 9 7 7 9 9 11
8 18 35 43 52 51 58 52 49 42 38 48 40 50 44 34 36 35 29 22 21 19 21 23 18 12 12 10 10 14 14 15 27 7 10 11 3 5 4 4 6 8 10 12
7 6 31 44 48 51 51 48 47 46 40 34 39 42 45 34 38 38 34 22 20 17 18 19 15 14 13 13 12 9 6 6 7 5 9 5 4 5 2 2 4 7 10 11
16 12 23 35 41 47 45 43 47 45 40 44 41 38 37 38 39 36 31 23 20 17 17 17 14 13 12 7 9 9 6 6 7 5 6 3 2 1 1 3 5 8 9 13
2 12 23 33 39 42 50 44 44 48 45 42 38 37 35 36 35 32 26 20 18 17 15 13 14 11 9 6 3 22 11 5 4 3 3 2 1 1 2 3 4 7 11 14
5 5 15 38 46 38 52 45 39 42 41 40 35 36 41 33 28 28 24 19 17 17 16 14 14 11 6 5 9 13 5 2 2 2 4 2 2 3 5 5 7 8 11 15
9 9 9 30 26 32 44 49 41 29 34 32 32 32 21 27 24 28 25 22 18 19 16 16 13 9 3 3 3 4 3 0 1 2 3 5 7 7 8 8 9 11 13 16
11 12 23 38 30 35 38 34 41 35 33 34 29 35 27 23 28 26 25 21 16 14 14 13 11 7 2 5 9 8 6 3 4 5 6 6 7 8 9 10 11 13 15 17
12 15 22 24 30 40 38 36 32 33 29 27 28 37 19 16 17 24 23 18 17 16 15 14 11 8 7 6 7 6 5 4 5 6 7 7 8 9 10 11 13 15 16 17
13 15 20 37 29 39 38 37 31 40 33 23 27 23 16 11 16 22 22 21 18 17 15 13 12 9 6 1 2 5 5 5 6 7 8 9 10 11 12 13 14 15 17 19
12 16 21 24 23 26 38 38 33 41 27 19 25 26 13 14 17 17 22 20 18 17 15 12 10 7 4 1 2 4 5 6 6 7 8 9 11 11 12 14 15 17 18 20
13 18 23 22 21 25 38 36 32 36 34 18 19 21 19 17 19 18 18 18 16 14 12 11 8 5 3 2 3 3 4 5 6 7 8 9 11 13 14 15 17 18 19 20
18 17 24 28 28 22 39 40 30 32 39 25 20 21 22 17 17 17 17 15 15 14 11 9 6 3 1 1 2 3 4 5 6 7 8 10 12 13 14 16 17 18 20 21
12 18 20 25 26 24 38 42 37 36 41 19 18 20 17 14 16 15 14 15 14 11 9 7 5 2 1 1 2 3 4 5 6 8 9 10 13 14 16 16 18 20 21 22
12 18 22 27 27 25 34 40 37 26 18 24 24 21 11 13 14 16 14 13 12 10 8 6 3 2 1 0 1 3 4 5 7 9 11 12 14 15 16 18 20 21 21 20
17 18 17 30 19 22 22 20 23 22 18 17 15 18 18 13 14 14 12 13 11 9 6 4 3 2 1 1 2 3 5 7 9 12 13 14 15 16 18 19 20 21 21 20
20 20 19 17 17 28 19 23 22 27 22 16 12 16 16 15 16 10 10 10 9 7 5 5 2 1 1 2 3 5 7 9 11 13 15 16 16 17 18 19 19 20 20 18
9 10 21 30 17 16 26 23 17 25 23 17 13 12 24 20 15 9 11 11 8 6 4 3 2 1 1 3 5 7 10 12 13 13 15 16 16 16 18 18 19 19 20 18
10 11 14 14 19 19 19 22 19 25 19 22 15 17 14 18 13 11 11 10 8 5 4 2 1 2 4 6 7 9 12 14 15 15 16 18 20 15 17 18 19 18 19 18
6 14 19 21 15 17 12 16 22 13 8 17 13 15 16 17 15 12 10 9 6 4 4 2 1 4 7 8 10 12 14 16 16 17 18 19 19 19 18 19 19 19 21 17
4 6 13 16 23 12 14 21 6 7 7 12 15 14 17 15 14 12 9 6 5 5 3 1 3 6 9 11 13 14 17 16 16 17 18 18 18 17 19 18 18 18 20 21
5 2 12 18 10 10 3 3 6 8 9 10 11 11 16 16 13 10 8 6 5 2 1 2 4 7 10 13 15 16 18 17 17 17 18 18 17 17 18 18 18 19 21 22
8 10 12 13 10 9 5 6 11 14 12 9 8 11 11 10 8 6 6 4 2 2 4 5 6 9 11 13 15 16 18 17 17 18 17 18 17 18 18 18 18 19 20 21
9 11 12 11 13 9 6 3 5 14 9 7 10 10 7 7 6 4 3 3 3 4 6 8 9 9 11 12 14 16 17 18 17 17 17 18 18 17 18 17 18 19 19 20
Wind_Direction
289 264 245 243 238 238 239 240 238 243 238 240 238 243 242 245 248 240 243 239 239 248 257 201 201 242 201 186 186 187 191 195 201 199 228 248 259 276 295 312 327 340 334 337
288 261 249 247 240 236 236 237 237 241 240 238 241 239 243 240 244 242 238 237 237 240 242 194 195 226 196 187 183 196 218 230 235 235 229 245 254 266 285 314 342 335 335 349
266 264 258 242 236 235 231 233 234 236 234 239 241 242 239 240 241 247 236 233 235 223 234 249 237 202 182 184 178 176 191 249 224 206 195 242 251 267 279 294 326 335 343 342
189 224 253 241 234 231 229 230 232 235 233 232 234 238 239 234 235 239 242 226 227 224 234 246 245 203 190 184 176 158 163 157 179 175 172 232 159 217 266 301 325 340 340 340
190 167 258 238 231 229 231 229 230 232 238 239 235 237 236 228 232 236 240 232 213 219 216 232 227 202 195 189 193 236 231 203 195 220 246 239 226 291 328 14 352 347 347 347
224 204 210 246 234 228 227 229 229 232 237 236 234 229 231 225 229 233 234 233 210 207 212 228 214 204 198 217 251 256 213 238 247 226 182 156 155 135 76 323 352 358 349 346
8 200 197 232 229 228 218 219 220 223 226 230 232 239 233 233 236 231 221 212 207 200 203 200 201 206 203 205 265 270 248 196 188 227 267 285 251 98 78 48 27 4 353 348
75 90 170 221 221 220 216 219 218 215 217 223 228 235 230 238 235 228 210 210 210 198 206 200 201 212 202 165 141 154 164 177 271 282 293 315 18 350 349 37 35 17 1 355
68 53 124 222 226 215 213 217 216 223 220 223 228 233 240 236 227 211 198 197 211 203 209 204 196 212 199 138 108 114 123 314 353 358 39 27 37 45 30 28 15 1 357 352
78 96 156 177 210 217 218 211 213 218 215 218 222 223 230 224 225 203 188 194 198 190 183 176 173 177 140 93 94 88 81 51 33 48 49 34 20 19 11 10 4 357 353 350
116 105 134 132 213 215 209 213 219 217 224 216 215 221 231 227 212 183 177 163 168 163 160 159 151 137 117 93 74 58 43 36 14 11 23 23 18 15 15 10 1 353 352 353
119 126 154 176 197 209 210 212 215 209 212 233 219 215 241 180 160 156 154 152 151 149 146 141 135 130 119 100 23 20 35 31 22 18 20 24 26 23 15 7 4 358 355 352
153 122 163 210 212 217 212 212 214 209 225 229 214 212 209 179 158 160 155 150 144 143 143 143 140 140 127 58 40 32 30 26 29 31 30 27 23 18 10 3 358 354 353 351
117 178 170 218 223 217 210 213 212 210 219 228 225 207 208 190 176 172 168 160 158 158 154 149 149 140 109 60 28 38 27 40 37 29 24 14 13 8 3 358 356 352 354 357
123 165 181 208 226 223 208 210 214 219 217 228 219 212 212 201 198 179 166 161 155 156 157 159 160 160 92 30 42 37 45 33 29 15 5 4 7 358 359 358 357 358 356 352
142 153 189 167 215 219 209 210 214 216 213 213 205 209 212 204 193 189 170 162 163 165 158 155 158 146 130 83 50 39 18 14 12 0 359 4 360 357 354 359 355 354 352 347
124 183 165 163 202 219 209 212 214 229 216 208 215 220 199 195 168 172 162 156 154 158 168 158 158 163 164 306 333 341 356 6 5 0 356 358 355 355 354 350 346 346 347 347
145 175 180 149 200 208 211 219 226 223 229 225 206 200 193 181 154 150 145 142 140 148 166 163 145 138 265 306 328 2 1 359 356 352 349 350 350 350 347 347 348 343 345 349
176 154 195 207 196 187 211 212 220 215 219 211 189 193 173 143 126 137 135 135 131 144 148 144 148 155 189 291 341 2 358 355 349 347 347 346 346 345 347 346 345 343 349 2
206 227 155 157 203 212 201 212 232 215 217 207 183 172 170 162 170 181 136 132 140 141 151 165 165 130 355 341 348 348 343 343 346 349 345 341 346 348 347 345 342 341 347 1
217 216 173 186 186 182 214 226 215 209 202 192 175 171 148 171 159 137 120 126 140 143 147 163 209 294 338 345 346 341 338 335 336 340 341 333 333 348 345 341 342 338 342 359
261 190 172 168 196 202 216 241 236 241 145 188 169 170 140 136 119 136 140 142 148 158 162 187 337 340 341 341 340 336 335 332 335 332 327 328 334 335 337 334 331 334 341 0
318 252 212 190 164 220 246 201 62 138 121 164 164 146 135 135 129 129 142 158 157 143 143 322 326 337 339 335 331 332 327 335 336 335 328 331 336 335 333 335 334 338 341 343
233 228 184 183 196 197 221 53 78 115 113 153 158 149 136 125 123 123 126 144 141 129 65 359 343 338 341 342 338 330 324 336 336 332 332 334 343 341 333 336 336 340 341 341
234 214 180 181 199 184 63 48 81 90 93 118 121 148 133 145 143 160 145 144 111 58 12 4 3 355 338 344 339 337 331 340 341 339 336 337 342 336 334 335 340 342 348 351
268 218 207 197 202 197 192 144 117 81 111 122 115 150 146 136 140 135 133 98 37 37 5 360 18 11 355 354 350 349 346 347 347 346 341 341 342 337 335 332 336 342 347 349